Location: Unspecified
(0.0000°N, 0.0000°E)
Time: 21:07:15
(UTC+00:00)

DMSP B5D2-3 - Pass Details

Date: 30 October 2019
Orbit: 821 x 838 km, 98.7° (Epoch: 16 November)

Event Time Altitude Azimuth Distance (km) Brightness Sun altitude
Rises 04:54:45 0° 134° (SE) 3,358 9.4 -11.9°
Reaches altitude 10° 04:58:03 10° 113° (ESE) 2,425 9.1 -11.1°
Maximum altitude 05:01:12 16° 77° (ENE) 2,043 8.2 -10.3°
Drops below altitude 10° 05:04:20 10° 41° (NE) 2,426 8.0 -9.6°
Sets 05:07:37 0° 20° (NNE) 3,360 8.4 -8.8°
